Location: Monrovia
(34.7865°N, 86.7139°W)
Time: 22:03:36
(UTC+00:00)

Cosmos 158 Rocket - Pass Details

Date: 14 July 2020
Orbit: 698 x 794 km, 74.0° (Epoch: 08 August)

Event Time Altitude Azimuth Distance (km) Brightness Sun altitude
Exits shadow 03:00:20 - 208° (SSW) 2,494 6.5 -20.3°
Reaches altitude 10° 03:01:14 10° 210° (SSW) 2,150 6.2 -20.4°
Maximum altitude 03:05:59 57° 289° (WNW) 827 4.4 -21.1°
Drops below altitude 10° 03:10:48 10° 8° (N) 2,183 6.9 -21.7°
Sets 03:13:12 0° 13° (NNE) 3,116 7.7 -22.1°
